| time (UTC) | temp C | wind direction | speed KPH | gust KPH | rain 1hr cm | rain 24hr cm | rain mn cm | humidity % | barometer mb |
| 20260505041522 | 15 | 260 | 6.4 | 14.5 | 0.00 | 0.00 | 0.00 | 60 | |
| 20260505040530 | 15 | 265 | 4.8 | 11.3 | 0.00 | 0.00 | 0.00 | 60 | |
| 20260505035556 | 17 | 0.0 | 0.0 | 0.00 | 0.18 | 0.03 | 99 | ||
| 20260505035544 | 15 | 281 | 9.7 | 17.7 | 0.00 | 0.00 | 0.00 | 59 | |
| 20260505034528 | 15 | 273 | 6.4 | 16.1 | 0.00 | 0.00 | 0.00 | 58 | |
| 20260505034526 | 17 | 0.0 | 0.0 | 0.00 | 0.18 | 0.03 | 99 | ||
| 20260505033533 | 17 | 0.0 | 0.0 | 0.00 | 0.18 | 0.03 | 99 | ||
| 20260505033521 | 15 | 286 | 6.4 | 12.9 | 0.00 | 0.00 | 0.00 | 60 | |
| 20260505032547 | 15 | 264 | 6.4 | 16.1 | 0.00 | 0.00 | 0.00 | 60 | |
| 20260505032543 | 17 | 0.0 | 0.0 | 0.00 | 0.18 | 0.03 | 99 | ||
| 20260505031550 | 18 | 0.0 | 0.0 | 0.00 | 0.18 | 0.03 | 99 | ||
| 20260505031543 | 15 | 274 | 8.0 | 14.5 | 0.00 | 0.00 | 0.00 | 59 | |
| 20260505030528 | 15 | 271 | 8.0 | 16.1 | 0.00 | 0.00 | 0.00 | 60 | |
| 20260505030521 | 17 | 0.0 | 0.0 | 0.00 | 0.18 | 0.03 | 99 | ||
| 20260505025528 | 17 | 0.0 | 0.0 | 0.00 | 0.18 | 0.03 | 99 | ||
| 20260505025522 | 15 | 281 | 6.4 | 11.3 | 0.00 | 0.00 | 0.00 | 60 | |
| 20260505024536 | 16 | 0.0 | 0.0 | 0.00 | 0.18 | 0.03 | 99 | ||
| 20260505024528 | 14 | 271 | 6.4 | 12.9 | 0.00 | 0.00 | 0.00 | 61 | |
| 20260505023525 | 16 | 0.0 | 0.0 | 0.00 | 0.18 | 0.03 | 99 | ||
| 20260505023520 | 13 | 263 | 9.7 | 17.7 | 0.00 | 0.00 | 0.00 | 63 | |
| 20260505022533 | 16 | 0.0 | 1.6 | 0.00 | 0.18 | 0.03 | 99 | ||
| 20260505022531 | 13 | 277 | 11.3 | 22.5 | 0.00 | 0.00 | 0.00 | 64 | |
| 20260505021524 | 13 | 271 | 9.7 | 17.7 | 0.00 | 0.00 | 0.00 | 63 | |
| 20260505020530 | 16 | 0.0 | 0.0 | 0.00 | 0.18 | 0.03 | 99 | ||
| 20260505020528 | 13 | 262 | 6.4 | 14.5 | 0.00 | 0.00 | 0.00 | 67 | |
| 20260505015541 | 15 | 0.0 | 0.0 | 0.00 | 0.18 | 0.03 | 99 | ||
| 20260505014530 | 15 | 0.0 | 0.0 | 0.00 | 0.18 | 0.03 | 99 | ||
| 20260505014528 | 12 | 277 | 8.0 | 17.7 | 0.00 | 0.00 | 0.00 | 67 | |
| 20260505013536 | 15 | 315 | 0.0 | 1.6 | 0.00 | 0.18 | 0.03 | 99 | |
| 20260505013520 | 12 | 298 | 8.0 | 17.7 | 0.00 | 0.00 | 0.00 | 65 | |
| 20260505012528 | 12 | 270 | 9.7 | 17.7 | 0.00 | 0.00 | 0.00 | 66 | |
| 20260505011552 | 15 | 0.0 | 0.0 | 0.00 | 0.18 | 0.03 | 99 | ||
| 20260505011542 | 13 | 269 | 8.0 | 14.5 | 0.00 | 0.00 | 0.00 | 66 | |
| 20260505010528 | 13 | 286 | 11.3 | 20.9 | 0.00 | 0.00 | 0.00 | 67 | |
| 20260505010522 | 15 | 0.0 | 0.0 | 0.00 | 0.18 | 0.03 | 99 | ||
| 20260505005529 | 15 | 0.0 | 0.0 | 0.00 | 0.18 | 0.03 | 99 | ||
| 20260505005524 | 13 | 268 | 8.0 | 16.1 | 0.00 | 0.00 | 0.00 | 67 | |
| 20260505004529 | 12 | 278 | 8.0 | 16.1 | 0.00 | 0.00 | 0.00 | 69 | |
| 20260505004519 | 15 | 0.0 | 0.0 | 0.00 | 0.18 | 0.03 | 99 | ||
| 20260505003527 | 15 | 0.0 | 0.0 | 0.00 | 0.20 | 0.03 | 99 | ||
| 20260505003521 | 12 | 281 | 8.0 | 16.1 | 0.00 | 0.00 | 0.00 | 70 | |
| 20260505002535 | 15 | 0.0 | 0.0 | 0.00 | 0.20 | 0.03 | 99 | ||
| 20260505002528 | 12 | 283 | 6.4 | 12.9 | 0.00 | 0.00 | 0.00 | 69 | |
| 20260505001524 | 14 | 0.0 | 0.0 | 0.00 | 0.20 | 0.03 | 99 | ||
| 20260505001520 | 12 | 267 | 4.8 | 12.9 | 0.00 | 0.00 | 0.00 | 70 | |
| 20260505000532 | 13 | 0.0 | 0.0 | 0.00 | 0.20 | 0.03 | 99 | ||
| 20260505000528 | 12 | 284 | 6.4 | 14.5 | 0.00 | 0.00 | 0.00 | 72 | |
| 20260504235521 | 14 | 0.0 | 0.0 | 0.00 | 0.20 | 0.03 | 99 | ||
| 20260504234549 | 13 | 0.0 | 0.0 | 0.00 | 0.20 | 0.03 | 99 | ||
| 20260504233538 | 13 | 0.0 | 0.0 | 0.00 | 0.20 | 0.03 | 99 | ||
| 20260504233523 | 12 | 8 | 3.2 | 11.3 | 0.00 | 0.00 | 0.00 | 75 | |
| 20260504232528 | 12 | 0.0 | 0.0 | 0.00 | 0.20 | 0.03 | 99 | ||
| 20260504231534 | 12 | 0.0 | 0.0 | 0.00 | 0.23 | 0.03 | 99 | ||
| 20260504231520 | 11 | 36 | 3.2 | 8.0 | 0.00 | 0.00 | 0.00 | 78 | |
| 20260504230528 | 11 | 23 | 3.2 | 8.0 | 0.00 | 0.00 | 0.00 | 78 | |
| 20260504230524 | 12 | 0.0 | 0.0 | 0.00 | 0.25 | 0.03 | 99 | ||
| 20260504225531 | 11 | 0.0 | 0.0 | 0.00 | 0.28 | 0.03 | 99 | ||
| 20260504225521 | 11 | 340 | 3.2 | 4.8 | 0.00 | 0.00 | 0.00 | 79 | |
| 20260504224528 | 11 | 297 | 1.6 | 4.8 | 0.00 | 0.00 | 0.00 | 79 | |
| 20260504224521 | 11 | 0.0 | 0.0 | 0.00 | 0.30 | 0.03 | 99 | ||
| 20260504223529 | 10 | 0.0 | 0.0 | 0.00 | 0.33 | 0.03 | 99 | ||
| 20260504223520 | 10 | 31 | 1.6 | 8.0 | 0.00 | 0.00 | 0.00 | 82 | |
| 20260504222537 | 10 | 0.0 | 0.0 | 0.00 | 0.33 | 0.03 | 99 | ||
| 20260504222529 | 10 | 10 | 3.2 | 8.0 | 0.00 | 0.00 | 0.00 | 82 | |
| 20260504221526 | 10 | 0.0 | 0.0 | 0.00 | 0.38 | 0.03 | 99 | ||
| 20260504221522 | 10 | 325 | 1.6 | 3.2 | 0.00 | 0.00 | 0.00 | 82 | |
| 20260504220534 | 9 | 0.0 | 0.0 | 0.00 | 0.38 | 0.03 | 99 | ||
| 20260504220528 | 10 | 320 | 1.6 | 3.2 | 0.00 | 0.00 | 0.00 | 85 | |
| 20260504215523 | 8 | 0.0 | 0.0 | 0.00 | 0.38 | 0.03 | 99 | ||
| 20260504215520 | 8 | 317 | 3.2 | 4.8 | 0.00 | 0.00 | 0.00 | 88 | |
| 20260504214532 | 8 | 0.0 | 0.0 | 0.00 | 0.38 | 0.03 | 99 | ||
| 20260504214528 | 8 | 277 | 1.6 | 3.2 | 0.00 | 0.00 | 0.00 | 91 | |
| 20260504213521 | 7 | 0.0 | 0.0 | 0.00 | 0.38 | 0.03 | 99 | ||
| 20260504212530 | 6 | 262 | 3.2 | 3.2 | 0.00 | 0.00 | 0.00 | 96 | |
| 20260504211538 | 6 | 0.0 | 0.0 | 0.00 | 0.38 | 0.03 | 99 | ||
| 20260504211520 | 6 | 243 | 0.0 | 3.2 | 0.00 | 0.00 | 0.00 | 96 | |
| 20260504210528 | 6 | 236 | 1.6 | 1.6 | 0.00 | 0.00 | 0.00 | 97 | |
| 20260504205533 | 6 | 0.0 | 0.0 | 0.00 | 0.38 | 0.03 | 99 | ||
| 20260504205520 | 6 | 0.0 | 0.0 | 0.00 | 0.00 | 0.00 | 96 | ||
| 20260504204528 | 6 | 237 | 1.6 | 3.2 | 0.00 | 0.00 | 0.00 | 97 | |
| 20260504204523 | 6 | 0.0 | 0.0 | 0.00 | 0.38 | 0.03 | 99 | ||
| 20260504203531 | 6 | 0.0 | 0.0 | 0.00 | 0.38 | 0.03 | 99 | ||
| 20260504203520 | 6 | 267 | 3.2 | 8.0 | 0.00 | 0.00 | 0.00 | 97 | |
| 20260504202528 | 6 | 269 | 3.2 | 4.8 | 0.00 | 0.00 | 0.00 | 97 | |
| 20260504202520 | 6 | 0.0 | 0.0 | 0.00 | 0.38 | 0.03 | 99 | ||
| 20260504201609 | 6 | 0.0 | 0.0 | 0.00 | 0.38 | 0.03 | 99 | ||
| 20260504201605 | 6 | 0.0 | 0.0 | 0.00 | 0.00 | 0.00 | 96 | ||
| 20260504200536 | 6 | 0.0 | 0.0 | 0.00 | 0.38 | 0.03 | 99 | ||
| 20260504200530 | 6 | 173 | 1.6 | 3.2 | 0.00 | 0.00 | 0.00 | 96 | |
| 20260504195525 | 6 | 0.0 | 0.0 | 0.00 | 0.38 | 0.03 | 99 | ||
| 20260504195520 | 6 | 261 | 3.2 | 8.0 | 0.00 | 0.00 | 0.00 | 97 | |
| 20260504194533 | 6 | 0.0 | 0.0 | 0.00 | 0.38 | 0.03 | 99 | ||
| 20260504194528 | 6 | 260 | 3.2 | 8.0 | 0.00 | 0.00 | 0.00 | 97 | |
| 20260504193522 | 6 | 270 | 3.2 | 8.0 | 0.00 | 0.00 | 0.00 | 97 | |
| 20260504192531 | 6 | 0.0 | 0.0 | 0.00 | 0.41 | 0.03 | 99 | ||
| 20260504192529 | 6 | 249 | 1.6 | 3.2 | 0.00 | 0.00 | 0.00 | 97 | |
| 20260504191524 | 6 | 0.0 | 0.0 | 0.00 | 0.41 | 0.03 | 99 | ||
| 20260504190529 | 6 | 0.0 | 0.0 | 0.00 | 0.41 | 0.03 | 99 | ||
| 20260504185555 | 6 | 0.0 | 0.0 | 0.00 | 0.41 | 0.03 | 99 | ||
| 20260504185543 | 6 | 0.0 | 0.0 | 0.00 | 0.00 | 0.00 | 95 | ||
| 20260504184528 | 7 | 163 | 0.0 | 3.2 | 0.00 | 0.00 | 0.00 | 94 | |
| 20260504184526 | 7 | 0.0 | 0.0 | 0.00 | 0.41 | 0.03 | 99 | ||
| 20260504183532 | 7 | 0.0 | 0.0 | 0.00 | 0.41 | 0.03 | 99 | ||
| 20260504183524 | 7 | 233 | 1.6 | 3.2 | 0.00 | 0.00 | 0.00 | 93 | |
| 20260504182528 | 7 | 285 | 4.8 | 12.9 | 0.00 | 0.00 | 0.00 | 94 | |
| 20260504182522 | 7 | 0.0 | 0.0 | 0.00 | 0.41 | 0.03 | 99 | ||
| 20260504181529 | 7 | 0.0 | 0.0 | 0.00 | 0.41 | 0.03 | 99 | ||
| 20260504181520 | 7 | 271 | 6.4 | 12.9 | 0.00 | 0.00 | 0.00 | 94 | |
| 20260504180528 | 7 | 281 | 6.4 | 12.9 | 0.00 | 0.00 | 0.00 | 95 | |
| 20260504180521 | 7 | 0.0 | 0.0 | 0.00 | 0.43 | 0.03 | 99 | ||
| 20260504175547 | 7 | 0.0 | 0.0 | 0.00 | 0.43 | 0.03 | 99 | ||
| 20260504175541 | 7 | 269 | 4.8 | 9.7 | 0.00 | 0.00 | 0.00 | 95 | |
| 20260504174535 | 7 | 0.0 | 0.0 | 0.00 | 0.46 | 0.03 | 99 | ||
| 20260504174528 | 7 | 266 | 4.8 | 11.3 | 0.00 | 0.00 | 0.00 | 95 | |
| 20260504173524 | 7 | 0.0 | 0.0 | 0.00 | 0.48 | 0.03 | 99 | ||
| 20260504173521 | 7 | 271 | 4.8 | 11.3 | 0.00 | 0.00 | 0.00 | 94 | |
| 20260504172533 | 7 | 0.0 | 0.0 | 0.00 | 0.51 | 0.03 | 99 | ||
| 20260504171542 | 7 | 259 | 3.2 | 4.8 | 0.00 | 0.00 | 0.00 | 94 | |
| 20260504170549 | 7 | 0.0 | 0.0 | 0.00 | 0.51 | 0.03 | 99 | ||
| 20260504150531 | 7 | 0.0 | 0.0 | 0.03 | 0.66 | 0.03 | 99 | ||
| 20260504150528 | 7 | 278 | 4.8 | 9.7 | 0.00 | 0.00 | 0.00 | 95 | |
| 20260504140529 | 7 | 283 | 4.8 | 11.3 | 0.00 | 0.00 | 0.00 | 96 | |
| 20260504140524 | 7 | 0.0 | 0.0 | 0.00 | 0.79 | 0.00 | 99 | ||
| 20260504130532 | 7 | 0.0 | 0.0 | 0.00 | 0.79 | 0.79 | 99 | ||
| 20260504130528 | 7 | 254 | 3.2 | 4.8 | 0.00 | 0.00 | 0.00 | 96 | |
| 20260504110529 | 8 | 264 | 3.2 | 4.8 | 0.00 | 0.00 | 0.00 | 97 | |
| 20260504100529 | 8 | 0.0 | 0.0 | 0.00 | 0.79 | 0.79 | 99 | ||
| 20260504081521 | 10 | 250 | 1.6 | 3.2 | 0.00 | 0.00 | 0.00 | 98 | |
| 20260504081025 | 10 | 0.0 | 0.0 | 0.00 | 0.79 | 0.79 | 99 | ||
| 20260504080529 | 10 | 276 | 3.2 | 8.0 | 0.00 | 0.00 | 0.00 | 98 | |
| 20260504050549 | 12 | 282 | 6.4 | 17.7 | 0.00 | 0.00 | 0.00 | 96 | |
| 20260504050521 | 12 | 0.0 | 0.0 | 0.03 | 0.66 | 0.66 | 99 | ||
| 20260504045530 | 12 | 0.0 | 0.0 | 0.03 | 0.66 | 0.66 | 99 | ||
| 20260504045521 | 12 | 283 | 8.0 | 20.9 | 0.00 | 0.00 | 0.00 | 95 |